This is the latest recevied weather packets stored in our database for station/object KC0SIQ-13. If no packets are shown the sender has not sent any weather packets the latest 10 day(s).
| Time | Temp. | Humidity | Pressure | Rain* | Wind** | Luminosity | Snow |
|---|---|---|---|---|---|---|---|
| 1778005453 | 2.78° C | 99% | 1012.4 hPa | 3.05 mm | - | 132 W/m² | - |
| 1778005149 | 3.33° C | 99% | 1012.4 hPa | 1.27 mm | - | 124 W/m² | - |
| 1778004846 | 2.78° C | 99% | 1012.1 hPa | 1.78 mm | - | 126 W/m² | - |
| 1778004543 | 2.78° C | 99% | 1012.5 hPa | 3.05 mm | - | 134 W/m² | - |
| 1778004240 | 2.78° C | 99% | 1012.7 hPa | 3.05 mm | - | 155 W/m² | - |
| 1778003936 | 2.78° C | 99% | 1012.7 hPa | 1.78 mm | - | 120 W/m² | - |
| 1778003633 | 2.78° C | 99% | 1012.3 hPa | 1.27 mm | - | 85 W/m² | - |
| 1778003329 | 2.78° C | 99% | 1012.5 hPa | 1.27 mm | - | 83 W/m² | - |
| 1778003027 | 2.78° C | 99% | 1012.6 hPa | 0 mm | - | 80 W/m² | - |
| 1778002722 | 2.78° C | 99% | 1012.6 hPa | 1.78 mm | - | 62 W/m² | - |
| 1778002419 | 2.78° C | 99% | 1012.4 hPa | 1.78 mm | - | 86 W/m² | - |
| 1778002116 | 2.78° C | 99% | 1012.7 hPa | 1.27 mm | - | 114 W/m² | - |
| 1778001814 | 2.22° C | 99% | 1012.8 hPa | 1.27 mm | - | 89 W/m² | - |
| 1778001513 | 2.22° C | 99% | 1013.2 hPa | 1.78 mm | - | 87 W/m² | - |
| 1778001211 | 2.78° C | 99% | 1013.2 hPa | 3.56 mm | - | 115 W/m² | - |
| 1778000907 | 2.22° C | 99% | 1013.1 hPa | 3.05 mm | - | 124 W/m² | - |
| 1778000604 | 1.67° C | 99% | 1013.1 hPa | 3.05 mm | - | 116 W/m² | - |
| 1778000299 | 2.22° C | 99% | 1013 hPa | 3.05 mm | - | 122 W/m² | - |
| 1777999995 | 2.22° C | 99% | 1013 hPa | 3.05 mm | - | 127 W/m² | - |
| 1777999691 | 1.67° C | 99% | 1012.8 hPa | 4.83 mm | - | 147 W/m² | - |
| 1777999388 | 2.22° C | 99% | 1013 hPa | 4.32 mm | - | 134 W/m² | - |
| 1777999086 | 2.22° C | 99% | 1012.7 hPa | 4.32 mm | - | 124 W/m² | - |
| 1777998785 | 2.22° C | 99% | 1013 hPa | 4.83 mm | - | 117 W/m² | - |
| 1777998483 | 2.22° C | 99% | 1012.7 hPa | 3.05 mm | - | 127 W/m² | - |
| 1777998178 | 2.22° C | 99% | 1012.8 hPa | 4.83 mm | - | 114 W/m² | - |
* Rain latest hour (hover to see other rain measurements)
** Current wind speed in m/s (hover to see current wind gust speed)